SWR8VD LSZH-EIDW

Flight info

Callsign SWR8VD
Flight time N/A
Altitude 38000
Route VEBIT T10 TORPA DCT REKLA DCT RLP DCT ROTSI DCT KOTUN DCT AMAXA DCT VESAN DCT RATUK DCT SOVAT L613 SANDY DCT OKSAW DCT TEWXI DCT LANON L18 LIPGO
Aircraft A320/M-SDE3FGHIRWY/LB1

Departure

Time 2026-02-19 14:40
Airport Zürich Airport (LSZH)

Arrival

Time N/A
Airport Dublin Airport (EIDW)
Time Latitude Longitude Altitude Speed Heading
2026-02-19 14:05 47.45418 8.55872 1397 ft 0 kts 186°
2026-02-19 14:28 47.45452 8.55875 1414 ft 3 kts 178°
2026-02-19 14:28 47.45472 8.55872 1406 ft 3 kts 167°
2026-02-19 14:29 47.45491 8.55863 1407 ft 3 kts 143°
2026-02-19 14:29 47.45501 8.55847 1400 ft 2 kts 100°
2026-02-19 14:29 47.45502 8.55837 1406 ft 0 kts 97°
2026-02-19 14:35 47.45502 8.55840 1406 ft 3 kts 97°
2026-02-19 14:35 47.45495 8.55938 1397 ft 12 kts 95°
2026-02-19 14:35 47.45489 8.56038 1404 ft 7 kts 96°
2026-02-19 14:35 47.45482 8.56121 1397 ft 9 kts 96°
2026-02-19 14:36 47.45484 8.56221 1397 ft 12 kts 69°
2026-02-19 14:36 47.45587 8.56429 1399 ft 15 kts 72°
2026-02-19 14:36 47.45586 8.56604 1397 ft 16 kts 96°
2026-02-19 14:37 47.45574 8.56777 1401 ft 14 kts 96°
2026-02-19 14:37 47.45564 8.56906 1397 ft 11 kts 95°
2026-02-19 14:37 47.45568 8.56976 1398 ft 0 kts 67°
2026-02-19 14:38 47.45598 8.57014 1405 ft 14 kts 31°
2026-02-19 14:39 47.45664 8.56975 1403 ft 8 kts 270°
2026-02-19 14:39 47.45665 8.56945 1399 ft 0 kts 275°
2026-02-19 14:39 47.45670 8.56863 1399 ft 37 kts 275°
2026-02-19 14:40 47.45726 8.56090 1398 ft 110 kts 276°
2026-02-19 14:40 47.45926 8.53043 2033 ft 172 kts 273°
2026-02-19 14:40 47.46019 8.51162 2573 ft 196 kts 272°
2026-02-19 14:41 47.46147 8.49032 3099 ft 220 kts 269°
2026-02-19 14:41 47.45703 8.46817 3751 ft 237 kts 236°
2026-02-19 14:41 47.44663 8.44908 4889 ft 239 kts 232°
2026-02-19 14:41 47.43575 8.43040 5979 ft 242 kts 233°
2026-02-19 14:42 47.42478 8.41125 6949 ft 247 kts 233°
2026-02-19 14:42 47.41383 8.39146 7934 ft 252 kts 235°
2026-02-19 14:42 47.40283 8.37094 8823 ft 257 kts 236°
2026-02-19 14:42 47.39182 8.34985 9716 ft 262 kts 236°
2026-02-19 14:43 47.38242 8.32632 10335 ft 276 kts 245°
2026-02-19 14:43 47.37334 8.30001 10642 ft 300 kts 244°
2026-02-19 14:43 47.36339 8.27161 10890 ft 323 kts 244°
2026-02-19 14:43 47.35263 8.24124 11421 ft 335 kts 244°
2026-02-19 14:44 47.34170 8.21059 12124 ft 341 kts 243°
2026-02-19 14:44 47.31930 8.14797 13639 ft 350 kts 243°
2026-02-19 14:44 47.30792 8.11619 14329 ft 353 kts 243°
2026-02-19 14:45 47.29642 8.08397 15001 ft 356 kts 244°
2026-02-19 14:45 47.28501 8.05134 15667 ft 360 kts 246°
2026-02-19 14:45 47.27680 8.01649 16321 ft 362 kts 257°
2026-02-19 14:45 47.27337 7.97970 16979 ft 365 kts 268°
2026-02-19 14:46 47.27478 7.94236 17598 ft 369 kts 277°
2026-02-19 14:46 47.27845 7.90483 18185 ft 372 kts 277°
2026-02-19 14:46 47.28211 7.86693 18724 ft 375 kts 277°
2026-02-19 14:46 47.28575 7.82871 19282 ft 378 kts 277°
2026-02-19 14:47 47.28939 7.79027 19829 ft 381 kts 277°
2026-02-19 14:47 47.29305 7.75144 20366 ft 384 kts 277°
2026-02-19 14:47 47.29672 7.71237 20893 ft 386 kts 277°
2026-02-19 14:47 47.30042 7.67298 21392 ft 390 kts 277°
2026-02-19 14:48 47.30456 7.63334 21900 ft 393 kts 282°
2026-02-19 14:48 47.32056 7.55558 22862 ft 400 kts 287°
2026-02-19 14:48 47.32909 7.51646 23338 ft 402 kts 287°
2026-02-19 14:49 47.33766 7.47701 23729 ft 405 kts 287°
2026-02-19 14:49 47.34621 7.43763 24321 ft 402 kts 286°
2026-02-19 14:49 47.35469 7.39839 24781 ft 403 kts 287°
2026-02-19 14:49 47.36331 7.35853 24948 ft 412 kts 286°
2026-02-19 14:50 47.37205 7.31794 25180 ft 418 kts 286°
2026-02-19 14:50 47.38089 7.27686 25514 ft 422 kts 286°
2026-02-19 14:50 47.38980 7.23544 25859 ft 425 kts 286°
2026-02-19 14:50 47.39877 7.19366 26197 ft 428 kts 286°
2026-02-19 14:51 47.40754 7.15149 26529 ft 431 kts 283°
2026-02-19 14:51 47.41415 7.10825 26841 ft 433 kts 281°
2026-02-19 14:51 47.42058 7.06468 27194 ft 435 kts 281°
2026-02-19 14:51 47.42699 7.02093 27547 ft 437 kts 281°
2026-02-19 14:52 47.43338 6.97700 27883 ft 439 kts 281°
2026-02-19 14:52 47.44626 6.88820 28489 ft 444 kts 281°
2026-02-19 14:52 47.45271 6.84352 28801 ft 446 kts 281°
2026-02-19 14:53 47.45920 6.79875 29232 ft 446 kts 280°
2026-02-19 14:53 47.46571 6.75403 29663 ft 445 kts 281°
2026-02-19 14:53 47.47221 6.70924 29988 ft 445 kts 280°
2026-02-19 14:53 47.47857 6.66437 30312 ft 445 kts 279°
2026-02-19 14:54 47.48234 6.61914 30768 ft 441 kts 275°
2026-02-19 14:54 47.48549 6.57419 31205 ft 439 kts 276°
2026-02-19 14:54 47.48867 6.52949 31609 ft 437 kts 276°
2026-02-19 14:54 47.49191 6.48485 31959 ft 437 kts 276°
2026-02-19 14:55 47.49516 6.44016 32304 ft 437 kts 276°
2026-02-19 14:55 47.49837 6.39553 32650 ft 437 kts 276°
2026-02-19 14:55 47.50155 6.35090 33036 ft 436 kts 276°
2026-02-19 14:55 47.50469 6.30636 33427 ft 435 kts 276°
2026-02-19 14:56 47.50779 6.26186 33764 ft 435 kts 276°
2026-02-19 14:56 47.51392 6.17277 34291 ft 436 kts 276°
2026-02-19 14:56 47.51679 6.13016 34568 ft 436 kts 276°
2026-02-19 14:57 47.51963 6.08835 34637 ft 410 kts 277°
2026-02-19 14:57 47.52313 6.04766 34539 ft 384 kts 280°
2026-02-19 14:57 47.52759 6.01081 35268 ft 344 kts 281°
2026-02-19 14:57 47.53152 5.97745 35702 ft 316 kts 280°
2026-02-19 14:58 47.53492 5.94629 35760 ft 300 kts 280°
2026-02-19 14:58 47.53800 5.91656 35810 ft 284 kts 280°
2026-02-19 14:58 47.54080 5.88877 35988 ft 261 kts 281°